CW4320 Weather Reports


time (UTC)temp
F
wind
direction
speed
knots
gust
knots
rain 1hr
in
rain 24hr
in
rain mn
in
humidity
%
barometer
mb
20260507070024 53 98 2.6 3.5 0.00 0.03 0.00 80 1011.5
20260507065038 53 82 1.7 4.3 0.00 0.03 0.00 80 1011.5
20260507064527 53 96 2.6 4.3 0.00 0.03 0.00 80 1011.5
20260507063524 52 94 1.7 3.5 0.00 0.03 0.00 80 1011.6
20260507063030 51 94 1.7 2.6 0.00 0.03 0.00 80 1011.6
20260507062033 50 75 2.6 4.3 0.00 0.03 0.00 80 1011.8
20260507061523 50 75 2.6 4.3 0.00 0.03 0.00 80 1011.8
20260507061026 50 117 1.7 2.6 0.00 0.03 0.00 80 1011.8
20260507060548 51 117 0.9 2.6 0.00 0.03 0.00 80 1011.8
20260507060030 51 117 0.9 2.6 0.00 0.03 0.00 80 1011.8
20260507055538 51 117 1.7 2.6 0.00 0.03 0.00 80 1011.8
20260507054533 49 121 1.7 3.5 0.00 0.03 0.00 80 1011.8
20260507053529 49 101 1.7 3.5 0.00 0.03 0.00 80 1011.8
20260507053035 49 115 0.9 3.5 0.00 0.03 0.00 80 1011.8
20260507052527 49 115 1.7 2.6 0.00 0.03 0.00 80 1011.9
20260507052032 48 124 0.9 2.6 0.00 0.03 0.00 80 1011.9
20260507051520 48 130 0.0 2.6 0.00 0.03 0.00 80 1011.9
20260507051027 48 130 0.9 2.6 0.00 0.03 0.00 80 1012.0
20260507050648 48 130 1.7 2.6 0.00 0.03 0.00 80 1012.0
20260507050027 48 130 1.7 2.6 0.00 0.03 0.00 80 1012.0
20260507045538 48 139 0.9 1.7 0.00 0.03 0.00 80 1012.0
20260507045024 48 139 1.7 1.7 0.00 0.03 0.00 80 1012.0
20260507044532 48 137 1.7 1.7 0.00 0.03 0.00 80 1012.0
20260507044035 48 139 0.9 1.7 0.00 0.03 0.00 80 1012.1
20260507043033 48 139 0.9 1.7 0.00 0.03 0.00 80 1012.1
20260507042527 49 139 0.0 1.7 0.00 0.03 0.00 80 1012.1
20260507042031 49 139 0.9 1.7 0.00 0.03 0.00 80 1012.1
20260507041539 49 139 0.9 2.6 0.00 0.03 0.00 80 1012.1
20260507041023 49 139 0.9 3.5 0.00 0.03 0.00 80 1012.4
20260507040544 49 136 1.7 3.5 0.00 0.03 0.00 80 1012.4
20260507040029 49 136 1.7 3.5 0.00 0.03 0.00 80 1012.4
20260507035537 49 144 2.6 3.5 0.00 0.03 0.00 80 1012.5
20260507035023 49 295 0.9 2.6 0.00 0.06 0.00 80 1012.5
20260507034533 49 295 1.7 2.6 0.00 0.06 0.00 80 1012.5
20260507033038 49 295 0.9 2.6 0.00 0.06 0.00 80 1012.4
20260507032527 49 295 0.9 2.6 0.00 0.06 0.00 80 1012.6
20260507032034 49 295 1.7 2.6 0.00 0.06 0.00 80 1012.6
20260507031521 49 295 1.7 2.6 0.00 0.06 0.00 80 1012.6
20260507031028 49 294 0.9 2.6 0.00 0.06 0.00 80 1012.6
20260507030548 49 295 0.9 2.6 0.00 0.06 0.00 80 1012.6
20260507030038 49 295 1.7 2.6 0.00 0.06 0.00 80 1012.6
20260507025024 49 295 0.9 2.6 0.00 0.06 0.00 80 1012.6
20260507024533 49 294 1.7 2.6 0.00 0.06 0.00 80 1012.6
20260507024036 49 294 1.7 2.6 0.00 0.06 0.00 80 1012.7
20260507023524 49 295 0.9 2.6 0.00 0.06 0.00 80 1012.7
20260507023029 49 295 0.9 1.7 0.00 0.06 0.00 80 1012.7
20260507021535 49 295 0.9 2.6 0.00 0.06 0.00 80 1012.8
20260507021038 49 294 1.7 2.6 0.00 0.06 0.00 80 1012.9
20260507020037 49 295 0.0 1.7 0.00 0.06 0.00 80 1012.9
20260507015523 49 295 0.0 1.7 0.00 0.06 0.00 80 1013.0
20260507015025 49 295 0.9 0.9 0.00 0.08 0.00 80 1013.0
20260507014534 50 295 0.0 1.7 0.00 0.08 0.00 80 1013.0
20260507014038 50 295 0.9 1.7 0.00 0.08 0.00 80 1013.0
20260507013526 50 294 0.0 1.7 0.00 0.08 0.00 80 1013.0
20260507013032 50 295 0.0 1.7 0.00 0.08 0.00 80 1013.0
20260507012523 50 294 0.0 0.9 0.00 0.08 0.00 80 1013.1
20260507012028 50 295 0.0 1.7 0.00 0.08 0.00 80 1013.1
20260507011535 50 295 0.9 1.7 0.00 0.08 0.00 80 1013.1
20260507011021 50 295 0.9 2.6 0.00 0.08 0.00 80 1013.1
20260507010603 51 294 0.0 2.6 0.00 0.08 0.00 80 1013.1
20260507010023 51 294 0.9 1.7 0.00 0.08 0.00 80 1013.1
20260507005532 51 295 0.0 0.0 0.00 0.08 0.00 80 1013.2
20260507004525 51 295 0.0 0.0 0.00 0.13 0.00 80 1013.2
20260507004031 51 295 0.0 0.9 0.00 0.13 0.00 80 1013.4
20260507003539 51 295 0.0 0.9 0.00 0.13 0.00 80 1013.4
20260507003028 51 295 0.0 0.0 0.00 0.13 0.00 80 1013.4
20260507002538 51 295 0.0 0.0 0.00 0.13 0.00 80 1013.5
20260507002027 51 295 0.0 0.0 0.00 0.13 0.00 80 1013.5
20260507001535 51 294 0.0 0.0 0.00 0.13 0.00 80 1013.5
20260507001021 52 295 0.0 0.0 0.00 0.13 0.00 80 1013.6
20260507000602 52 294 0.0 0.9 0.00 0.13 0.00 80 1013.6
20260507000024 52 295 0.0 0.9 0.00 0.13 0.00 80 1013.6
20260506235036 52 295 0.0 1.7 0.00 0.17 0.13 80 1013.6
20260506234524 53 295 0.0 1.7 0.00 0.17 0.13 80 1013.6
20260506234029 53 295 0.9 1.7 0.00 0.17 0.13 80 1013.7
20260506233522 53 295 0.0 0.0 0.00 0.17 0.13 80 1013.7
20260506233028 53 295 0.0 0.0 0.00 0.17 0.13 80 1013.7
20260506232536 53 295 0.0 0.9 0.00 0.17 0.13 80 1013.6
20260506232037 53 295 0.0 1.7 0.00 0.17 0.13 80 1013.6
20260506231525 54 295 0.0 2.6 0.00 0.17 0.13 80 1013.6
20260506231030 54 295 1.7 2.6 0.00 0.17 0.13 80 1013.6
20260506230550 54 295 0.9 1.7 0.00 0.17 0.13 80 1013.6
20260506230032 53 295 0.0 0.0 0.00 0.17 0.13 80 1013.6
20260506225520 53 295 0.0 0.0 0.00 0.17 0.13 80 1013.7
20260506225028 54 295 0.0 0.0 0.00 0.17 0.13 80 1013.7
20260506224539 54 295 0.0 0.0 0.00 0.17 0.13 80 1013.7
20260506224026 54 295 0.0 0.0 0.00 0.17 0.13 80 1013.9
20260506223038 55 295 0.0 0.0 0.00 0.17 0.13 80 1013.9
20260506222525 55 294 0.0 0.0 0.00 0.17 0.13 80 1013.8
20260506221521 55 295 0.0 0.0 0.00 0.17 0.13 80 1013.8
20260506221025 55 295 0.0 0.0 0.00 0.17 0.13 80 1014.0
20260506220547 55 295 0.0 0.0 0.00 0.17 0.13 80 1014.0
20260506220030 55 295 0.0 0.0 0.00 0.17 0.13 80 1014.0
20260506215537 56 295 0.0 0.0 0.00 0.17 0.13 80 1014.1
20260506215027 56 295 0.0 0.0 0.00 0.20 0.13 80 1014.1
20260506214535 56 295 0.0 0.0 0.00 0.20 0.13 80 1014.1
20260506214038 56 294 0.0 0.0 0.00 0.20 0.13 80 1014.1
20260506213524 56 295 0.0 0.0 0.00 0.20 0.13 80 1014.1
20260506213030 56 295 0.0 0.0 0.00 0.20 0.13 80 1014.1
20260506212027 56 295 0.0 0.0 0.00 0.20 0.13 80 1014.1
20260506211534 56 294 0.0 0.0 0.00 0.20 0.13 80 1014.1
20260506211021 56 295 0.0 0.0 0.00 0.20 0.13 80 1014.2
20260506210543 56 295 0.0 0.0 0.00 0.20 0.13 80 1014.2
20260506210026 56 295 0.0 0.0 0.00 0.20 0.13 80 1014.2
20260506205539 56 295 0.0 0.0 0.00 0.20 0.13 80 1014.1
20260506204531 56 295 0.0 0.0 0.00 0.20 0.13 80 1014.1
20260506204037 56 295 0.0 0.0 0.00 0.20 0.13 80 1014.1
20260506203526 57 295 0.0 0.0 0.00 0.20 0.13 80 1014.1
20260506203033 57 295 0.0 0.0 0.00 0.20 0.13 80 1014.1
20260506202521 57 294 0.0 0.0 0.00 0.20 0.13 80 1013.9
20260506202026 57 295 0.0 0.0 0.00 0.20 0.13 80 1013.9
20260506201535 57 295 0.0 0.0 0.00 0.20 0.13 80 1013.9
20260506201022 57 295 0.0 0.0 0.00 0.20 0.13 80 1013.7
20260506200546 57 295 0.0 0.0 0.00 0.20 0.13 80 1013.7
20260506200029 58 295 0.0 0.0 0.00 0.20 0.13 80 1013.7
20260506195537 58 295 0.0 0.0 0.00 0.20 0.13 80 1013.6
20260506195023 58 294 0.0 0.0 0.00 0.20 0.13 80 1013.6
20260506194532 58 295 0.0 0.0 0.00 0.20 0.13 80 1013.6
20260506194034 58 295 0.0 0.0 0.00 0.20 0.13 80 1013.5
20260506193524 58 294 0.0 0.0 0.00 0.20 0.13 80 1013.5
20260506193030 58 295 0.0 0.0 0.00 0.20 0.13 80 1013.5
20260506192539 58 295 0.0 0.0 0.00 0.20 0.13 80 1013.5
20260506192025 58 295 0.0 0.0 0.00 0.20 0.13 80 1013.5
20260506191537 58 295 0.0 0.0 0.00 0.20 0.13 80 1013.5
20260506191024 58 294 0.0 0.0 0.00 0.20 0.13 80 1013.5
20260506190547 58 294 0.0 0.0 0.00 0.20 0.13 80 1013.5
20260506190031 58 295 0.0 0.0 0.00 0.20 0.13 80 1013.5
20260506185026 58 295 0.0 0.0 0.00 0.24 0.13 80 1013.5
20260506184535 59 295 0.0 0.0 0.00 0.24 0.13 80 1013.5
20260506184039 59 295 0.0 0.0 0.00 0.24 0.13 80 1013.5
20260506183526 59 295 0.0 0.0 0.00 0.24 0.13 80 1013.5
20260506183031 59 295 0.0 0.9 0.00 0.24 0.13 80 1013.5
20260506182522 59 295 0.0 3.5 0.00 0.24 0.13 80 1013.6
20260506182028 59 294 0.9 3.5 0.00 0.24 0.13 80 1013.6
20260506181538 59 312 0.9 2.6 0.00 0.24 0.13 80 1013.6
20260506180602 59 312 0.9 2.6 0.00 0.24 0.13 80 1013.5
20260506180024 59 312 0.9 2.6 0.00 0.24 0.13 80 1013.5
20260506175534 59 326 1.7 3.5 0.00 0.24 0.13 80 1013.6
20260506175037 59 340 2.6 3.5 0.00 0.24 0.13 80 1013.6
20260506174526 59 340 2.6 3.5 0.00 0.24 0.13 80 1013.6
20260506174032 59 333 2.6 3.5 0.00 0.24 0.13 80 1013.6
20260506173539 59 359 1.7 3.5 0.00 0.24 0.13 80 1013.6
20260506173031 59 359 0.9 3.5 0.00 0.24 0.13 80 1013.6
20260506172539 59 321 1.7 4.3 0.00 0.24 0.13 80 1013.6
20260506172023 59 1 3.5 4.3 0.00 0.24 0.13 80 1013.6
20260506171533 59 360 3.5 4.3 0.00 0.24 0.13 80 1013.6
20260506171039 59 360 3.5 5.2 0.00 0.24 0.13 80 1013.6
20260506170600 59 359 3.5 5.2 0.00 0.24 0.13 80 1013.6
20260506170023 59 359 1.7 4.3 0.00 0.24 0.13 80 1013.6
20260506165530 60 322 1.7 6.1 0.00 0.24 0.13 80 1013.6
20260506164521 60 302 2.6 7.8 0.00 0.24 0.13 80 1013.6
20260506163535 60 309 3.5 7.0 0.00 0.24 0.13 80 1013.6
20260506163025 60 354 3.5 7.0 0.00 0.24 0.13 80 1013.6
20260506162535 60 360 3.5 7.8 0.00 0.24 0.13 80 1013.7
20260506162038 60 326 5.2 7.8 0.00 0.24 0.13 80 1013.7
20260506161525 60 356 4.3 7.0 0.00 0.24 0.13 80 1013.7
20260506161032 59 328 3.5 7.8 0.00 0.24 0.13 80 1013.8
20260506160554 59 325 4.3 7.8 0.00 0.24 0.13 80 1013.8
20260506160037 59 302 4.3 8.7 0.00 0.24 0.13 80 1013.8
20260506155525 60 323 4.3 8.7 0.00 0.24 0.13 80 1013.9
20260506155039 60 359 5.2 7.8 0.00 0.24 0.13 80 1013.9
20260506154525 60 350 4.3 8.7 0.00 0.24 0.13 80 1013.9
20260506154035 61 290 2.6 8.7 0.00 0.24 0.13 80 1014.0
20260506153523 60 297 4.3 7.0 0.00 0.24 0.13 80 1014.0
20260506153029 60 311 4.3 8.7 0.00 0.24 0.13 80 1014.0
20260506152538 60 297 4.3 8.7 0.00 0.24 0.13 80 1014.1
20260506152023 60 327 2.6 6.1 0.00 0.24 0.13 80 1014.1
20260506150602 60 340 6.1 9.6 0.00 0.24 0.13 80 1014.1
20260506150024 60 323 3.5 9.6 0.00 0.24 0.13 80 1014.1
20260506145035 61 339 4.3 9.6 0.00 0.29 0.13 80 1014.2
20260506144524 61 329 5.2 9.6 0.00 0.29 0.13 80 1014.2
20260506144035 60 301 3.5 8.7 0.00 0.29 0.13 80 1014.3
20260506142523 61 346 5.2 9.6 0.00 0.29 0.13 80 1014.4
20260506142031 61 359 2.6 7.8 0.00 0.29 0.13 80 1014.4
20260506141540 60 250 5.2 9.6 0.00 0.29 0.13 80 1014.4
20260506141040 60 295 3.5 10.4 0.00 0.29 0.13 80 1014.5
20260506135534 61 347 6.1 9.6 0.00 0.29 0.13 80 1014.6
20260506135039 61 290 2.6 8.7 0.00 0.29 0.13 80 1014.6
20260506134527 61 302 3.5 10.4 0.00 0.29 0.13 80 1014.6
20260506134030 61 307 7.8 10.4 0.00 0.29 0.13 80 1014.7
20260506133523 61 303 6.1 9.6 0.00 0.29 0.13 80 1014.7
20260506132539 61 333 5.2 10.4 0.00 0.29 0.13 80 1014.6
20260506132026 61 276 6.1 10.4 0.00 0.29 0.13 80 1014.6
20260506131039 62 295 7.8 12.2 0.00 0.29 0.13 80 1014.6
20260506130559 61 285 7.0 9.6 0.00 0.29 0.13 80 1014.6
20260506130040 61 339 7.0 9.6 0.00 0.29 0.13 80 1014.6
20260506125039 61 292 5.2 10.4 0.00 0.29 0.13 80 1014.7
20260506124527 61 312 4.3 12.2 0.00 0.29 0.13 80 1014.7
20260506124029 61 294 5.2 12.2 0.00 0.29 0.13 80 1014.7
20260506123522 61 304 6.1 11.3 0.00 0.29 0.13 80 1014.7
20260506122539 61 295 6.1 11.3 0.00 0.29 0.13 80 1014.7
20260506122024 61 278 5.2 10.4 0.00 0.29 0.13 80 1014.7
20260506121533 61 289 7.8 10.4 0.00 0.29 0.13 80 1014.7
20260506121021 61 290 6.1 11.3 0.00 0.29 0.13 80 1014.7
20260506120543 61 257 5.2 11.3 0.00 0.29 0.13 80 1014.7
20260506120025 61 248 4.3 11.3 0.00 0.29 0.13 80 1014.7
20260506115535 61 311 6.1 12.2 0.00 0.29 0.13 80 1014.7
20260506115038 60 224 5.2 12.2 0.00 0.29 0.13 80 1014.6
20260506114529 60 248 4.3 9.6 0.00 0.29 0.13 80 1014.6
20260506113524 60 269 4.3 12.2 0.00 0.29 0.13 80 1014.6
20260506113030 60 317 7.0 11.3 0.00 0.29 0.13 80 1014.6
20260506112025 60 272 6.1 11.3 0.00 0.29 0.13 80 1014.6
20260506111024 60 283 7.8 12.2 0.00 0.29 0.13 80 1014.6
20260506110603 60 255 5.2 13.0 0.00 0.29 0.13 80 1014.6
20260506105531 60 295 4.3 12.2 0.00 0.29 0.13 80 1014.6
20260506105036 60 317 3.5 10.4 0.00 0.29 0.13 80 1014.6
20260506103035 60 313 7.0 12.2 0.01 0.29 0.13 80 1014.6
20260506102034 59 250 3.5 11.3 0.01 0.29 0.13 80 1014.6
20260506101539 59 250 3.5 10.4 0.01 0.29 0.13 80 1014.6
20260506101025 59 253 4.3 10.4 0.01 0.29 0.13 80 1014.6
20260506100544 59 236 4.3 10.4 0.01 0.29 0.13 80 1014.6
20260506095540 58 228 7.0 9.6 0.02 0.29 0.13 80 1014.5
20260506095026 57 300 4.3 9.6 0.02 0.29 0.13 80 1014.5
20260506094035 57 258 3.5 14.8 0.03 0.29 0.13 80 1014.5
20260506093032 56 248 3.5 9.6 0.02 0.28 0.12 80 1014.5
20260506092523 56 249 4.3 12.2 0.02 0.28 0.12 80 1014.5
20260506092029 56 259 7.0 12.2 0.02 0.28 0.12 80 1014.5
20260506091538 56 271 5.2 13.9 0.02 0.28 0.12 80 1014.5
20260506091024 56 276 2.6 15.6 0.02 0.28 0.12 80 1014.4
20260506090546 57 226 7.0 15.6 0.02 0.28 0.12 80 1014.4
20260506090030 57 297 3.5 13.9 0.02 0.28 0.11 80 1014.4
20260506085537 57 271 7.0 11.3 0.02 0.28 0.11 80 1014.4
20260506084027 57 289 4.3 11.3 0.00 0.26 0.09 80 1014.3
20260506083535 57 266 6.1 10.4 0.00 0.26 0.09 80 1014.3
20260506083026 57 262 4.3 11.3 0.00 0.26 0.09 80 1014.3
20260506082020 57 266 4.3 15.6 0.00 0.26 0.09 80 1014.2
20260506081530 57 267 5.2 11.3 0.00 0.26 0.09 80 1014.2
20260506081036 57 263 4.3 11.3 0.00 0.26 0.09 80 1014.1
20260506080557 57 259 4.3 12.2 0.00 0.26 0.09 80 1014.1
20260506073523 57 238 7.0 13.0 0.00 0.26 0.09 80 1013.9
20260506073029 57 256 4.3 15.6 0.00 0.26 0.09 80 1013.9
20260506072025 57 290 7.0 15.6 0.00 0.26 0.09 80 1013.8
20260506071535 56 338 4.3 11.3 0.00 0.26 0.09 80 1013.8
20260506071022 56 248 4.3 10.4 0.00 0.26 0.09 80 1013.8
20260506070544 56 252 5.2 9.6 0.00 0.26 0.09 80 1013.8